Regional Weather Roundup
Issued by NWS

Home | Current Version | Previous Version | Text Only | Print | Product List | Glossary On
Versions: 1 2 3 4 5 6 7 8 9 10 11 12 13 14 15 16 17 18 19 20 21 22 23 24 25 26 27
000
ASUS45 KREV 202010
RWRNV
NEVADA REGIONAL WEATHER ROUNDUP
NATIONAL WEATHER SERVICE RENO NV
100 PM PDT FRI OCT 20 2017

NOTE: "FAIR" INDICATES FEW OR NO CLOUDS BELOW 12,000 FEET WITH NO
SIGNIFICANT WEATHER AND/OR OBSTRUCTIONS TO VISIBILITY.

NVZ001-003-004-202100-
WESTERN NEVADA

CITY           SKY/WX    TMP DP  RH WIND       PRES   REMARKS
RENO           MOSUNNY   51  25  36 W14       30.01S
CARSON CITY    FAIR      50  23  34 SW8       30.01F
MINDEN         FAIR      48  21  34 W12G20    30.01F
SLIDE MTN        N/A     25  25 100 NW5         N/A
FALLON         MOSUNNY   54  15  21 W14       29.99S
LOVELOCK       SUNNY     53  23  31 W17G24    29.97S
HAWTHORNE      SUNNY     55  14  19 N16G26    29.97R
$$

NVZ002-CAZ072-073-202100-
NORTHERN AND CENTRAL SIERRA

CITY           SKY/WX    TMP DP  RH WIND       PRES   REMARKS
S. LAKE TAHOE  MOSUNNY   40  26  57 S13       30.02S
TRUCKEE        PTSUNNY   39  28  65 MISG      30.03F
SQUAW VLY 8000 NOT AVBL
SUSANVILLE     MOSUNNY   48  30  49 W13       30.01S
BLUE CANYON    MOSUNNY   41  33  73 S8        30.06S
MAMMOTH LAKES  FAIR      50   1  13 W29G41    29.97S
BRIDGEPORT     FAIR      43  14  31 SW15G24   29.98S
$$

NVZ030-031-036-202100-
NORTHERN NEVADA

CITY           SKY/WX    TMP DP  RH WIND       PRES   REMARKS
ELKO           PTSUNNY   45  23  42 W20       29.92S
WINNEMUCCA     PTSUNNY   49  27  42 W13G21    29.95S
WENDOVER       MOSUNNY   53  22  29 NW16G23   29.83R
$$

NVZ035-037-202100-
CENTRAL NEVADA

CITY           SKY/WX    TMP DP  RH WIND       PRES   REMARKS
ELY            MOSUNNY   51   5  15 NW23G33   29.87F
$$

NVZ013-014-202100-
SOUTH CENTRAL NEVADA

CITY           SKY/WX    TMP DP  RH WIND       PRES   REMARKS
TONOPAH        SUNNY     56  10  16 N26G38    29.90R
$$

NVZ017-020-022-202100-
SOUTHERN NEVADA

CITY           SKY/WX    TMP DP  RH WIND       PRES   REMARKS
LAS VEGAS      MOSUNNY   76  40  27 SW20G31   29.69R
N. LAS VEGAS   SUNNY     80  34  19 W13G26    29.65S
NELLIS AFB     SUNNY     78  39  24 S23G31    29.65F
HENDERSON      SUNNY     75  40  28 SW26G35   29.72F
MERCURY        SUNNY     70  38  31 SW16G26   29.77F
$$




USA.gov is the U.S. government's official web portal to all federal, state and local government web resources and services.